ARIANE 5 R/B, 40273

Orbit data source: Space-Track

ARIANE 5 R/B, 40273 is space debris in HEO originally from a launch on Thu, 16 Oct 2014 UTC launched from the French Guiana (FRGUI). Debris objects in space refer to the collection of defunct objects orbiting the Earth. Examples of debris include non-operational satellites, rocket bodies, and fragments generated from explosions, collisions, or faulty payload assembly.

Loading next visibility...
Identifier
40273, 2014-062C
Orbit
HEO
Country
Flag of FRFR
Related business
Manufacturer
ADS/LV
Mission
Spacecraft
Bus & Motor
ESC-A, Unknown motor
Mass
~5,000 kg wet, ~5,000 kg dry
Launch date (UTC)
2014-10-16 (12 years ago)
Launch vehicle
Unknown
Launch site
French Guiana (FRGUI)
Object type
Payload
Rocket body
Debris
Shape & HBR
Cyl + 1 Nozzle, 3.5 m
Radar Cross Section
41.627 m², Large (>1 m²)

Expand to show TLE details & history
Last TLE update: 3 days ago

TLE from 3 days ago
0 ARIANE 5 R/B
1 40273U 14062C   26170.97100885  .00016133  00000-0  15058-2 0  9998
2 40273   6.4239  43.0372 6974394  35.4898 355.2798  2.70002627104101
Epoch: 2026-06-19T23:18Z
TLE epoch observation values (Epoch: 2026-06-19T23:18:15.164Z)
Latitude
-0.00005°
Longitude
145.31111°
Altitude
739.032 km
Speed
9.68 km/s
True Right ascension
02h 52m 15s
True Declination
0° 00' 00"
Sunlit
Object was in daylight at epoch
Visualization orbit readout
Latitude
Unknown
Longitude
Unknown
Altitude
Unknown
Speed
Unknown
Apparent Right ascension
Unknown
Apparent Declination
Unknown
Sunlit
N/A
Visualization observer readout
Local Sidereal Time
23:19:51
Azimuth
Unknown
Elevation
Unknown
Doppler factor
Unknown
Orbital elements
Apogee altitude
30,609.664 km
Perigee altitude
214.765 km
Semi-major axis
21,790.351 km
Eccentricity
0.69744
Inclination
6.4239°
RAAN
43.0372°
Arg. of periapsis
35.4898°
True anomaly
324.9406°
Mean anomaly
355.2798°
Eccentric anomaly
344.80805°
Mean motion
0.67476 °/min
Orbital period
533.53 mins
BSTAR
0.0015058
Loading maneuver chart data...
Computing Atmospheric mass density...
Loading historical data...
Loading historical data...
Loading historical data...
Loading historical data...
Loading historical data...
Loading historical data...
Loading historical data...
Other satellites on launch #62 in the year 2014 (2014-10-16 UTC)

Documentation

Showing up to 5 results
|